Location: Asheville, NC
(35.6000°N, 82.5500°W)
Time: 23:41:27

KKS-1 - Pass Details

Date: 11 March 2018
Orbit: 638 x 650 km, 98.4° (Epoch: 19 March)

Event Time Altitude Azimuth Distance (km) Brightness Sun altitude
Rises 05:10:50 0° 124° (ESE) 2,951 ? -32.0°
Reaches altitude 10° 05:13:51 10° 101° (E) 2,047 ? -31.4°
Maximum altitude 05:16:24 15° 66° (ENE) 1,725 ? -30.9°
Drops below altitude 10° 05:18:58 10° 31° (NNE) 2,056 ? -30.4°
Sets 05:22:00 0° 9° (N) 2,971 ? -29.8°
